Overview Statistics Trail Chart Weather Telemetry Raw packets
 

This is the latest recevied weather packets stored in our database for station/object KC9DRE. If no packets are shown the sender has not sent any weather packets the latest 10 day(s).

<< 96 97 98 99 100 101 102 >>
Time Temp. Humidity Pressure Rain* Wind** Luminosity Snow
1777169422 12.22° C 90% 1012.7 hPa 0 mm - 0 W/m² -
1777169121 12.22° C 89% 1012.7 hPa 0 mm - 0 W/m² -
1777168817 12.78° C 89% 1012.6 hPa 0 mm - 0 W/m² -
1777168508 12.78° C 88% 1012.6 hPa 0 mm - 0 W/m² -
1777168207 12.78° C 87% 1012.6 hPa 0 mm - 0 W/m² -
1777167903 13.33° C 86% 1012.6 hPa 0 mm - 0 W/m² -
1777167603 13.33° C 86% 1012.5 hPa 0 mm - 0 W/m² -
1777167298 13.89° C 85% 1012.5 hPa 0 mm - 0 W/m² -
1777166994 13.89° C 84% 1012.5 hPa 0 mm - 0 W/m² -
1777166690 14.44° C 83% 1012.4 hPa 0 mm - 0 W/m² -
1777166385 14.44° C 82% 1012.4 hPa 0 mm - 0 W/m² -
1777166082 15° C 81% 1012.1 hPa 0 mm - 0 W/m² -
1777165780 15° C 80% 1012.1 hPa 0 mm - 0 W/m² -
1777165477 15.56° C 79% 1012 hPa 0 mm - 0 W/m² -
1777165172 15.56° C 77% 1012.1 hPa 0 mm - 0 W/m² -
1777164868 16.11° C 76% 1011.9 hPa 0 mm - 0 W/m² -
1777164565 16.67° C 75% 1012 hPa 0 mm - 0 W/m² -
1777164262 17.22° C 74% 1012.1 hPa 0 mm - 0 W/m² -
1777163961 17.22° C 72% 1011.9 hPa 0 mm - 1 W/m² -
1777163661 17.78° C 70% 1011.8 hPa 0 mm - 2 W/m² -
1777163357 18.89° C 67% 1011.7 hPa 0 mm - 4 W/m² -
1777163054 18.89° C 65% 1011.6 hPa 0 mm - 6 W/m² -
1777162753 19.44° C 61% 1011.4 hPa 0 mm - 8 W/m² -
1777162448 20° C 60% 1011.3 hPa 0 mm - 12 W/m² -
1777162148 20.56° C 59% 1011.6 hPa 0 mm - 15 W/m² -

* Rain latest hour (hover to see other rain measurements)
** Current wind speed in m/s (hover to see current wind gust speed)